When you browse on this site, cookies collect data to enhance your experience and personalize the content and advertising you see.
Visit our Privacy Policy to learn more. By continuing to use the site, you agree to this use of cookies and data.
  • In Spain
  • List of Countries
  • For 7 days
  • Water Temperature
  • Weather Map
  • Weather Widgets
  • user-avatar
    Login

    Hourly Weather Loja

    Today, 27 January, Monday

    Time Temperature Precipitation Wind Pressure Humidity
    00:00 +5°C° 0 mm 2 mps 716 mmHg 89%
    01:00 +6°C° 0 mm 1 mps 715 mmHg 88%
    02:00 +6°C° 0 mm 1 mps 715 mmHg 88%
    03:00 +5°C° 0 mm 1 mps 714 mmHg 88%
    04:00 +5°C° 0 mm 1 mps 714 mmHg 87%
    05:00 +5°C° 0 mm 1 mps 714 mmHg 86%
    06:00 +5°C° 0 mm 1 mps 715 mmHg 85%
    07:00 +6°C° 0 mm 1 mps 715 mmHg 81%
    08:00 +7°C° 0 mm 1 mps 715 mmHg 76%
    09:00 +7°C° 0 mm 0 mps 715 mmHg 72%
    10:00 +9°C° 0 mm 1 mps 715 mmHg 66%
    11:00 +11°C° 0 mm 1 mps 716 mmHg 60%
    12:00 +12°C° 0 mm 1 mps 716 mmHg 54%
    13:00 +13°C° 0 mm 2 mps 716 mmHg 53%
    14:00 +13°C° 0 mm 2 mps 715 mmHg 53%
    15:00 +13°C° 0 mm 2 mps 715 mmHg 53%
    16:00 +12°C° 0 mm 2 mps 715 mmHg 62%
    17:00 +10°C° 0 mm 2 mps 715 mmHg 70%
    18:00 +8°C° 0 mm 2 mps 715 mmHg 78%
    19:00 +9°C° 0 mm 1 mps 715 mmHg 81%
    20:00 +8°C° 0 mm 1 mps 715 mmHg 84%
    21:00 +8°C° 0 mm 1 mps 715 mmHg 87%
    22:00 +8°C° 0 mm 1 mps 715 mmHg 88%
    23:00 +8°C° 0 mm 1 mps 715 mmHg 89%

    Tomorrow, 28 January, Tuesday

    Time Temperature Precipitation Wind Pressure Humidity
    00:00 +7°C° 0 mm 1 mps 715 mmHg 89%
    01:00 +7°C° 0 mm 1 mps 715 mmHg 90%
    02:00 +7°C° 0 mm 1 mps 715 mmHg 90%
    03:00 +7°C° 0 mm 1 mps 715 mmHg 91%
    04:00 +7°C° 0 mm 1 mps 715 mmHg 90%
    05:00 +7°C° 0 mm 1 mps 715 mmHg 90%
    06:00 +7°C° 0 mm 1 mps 715 mmHg 90%
    07:00 +8°C° 0 mm 1 mps 715 mmHg 87%
    08:00 +9°C° 0 mm 1 mps 715 mmHg 84%
    09:00 +10°C° 0 mm 1 mps 716 mmHg 82%
    10:00 +11°C° 0 mm 1 mps 716 mmHg 77%
    11:00 +13°C° 0 mm 1 mps 716 mmHg 72%
    12:00 +14°C° 0 mm 1 mps 716 mmHg 67%
    13:00 +15°C° 0 mm 1 mps 716 mmHg 65%
    14:00 +15°C° 0 mm 2 mps 715 mmHg 63%
    15:00 +16°C° 0 mm 2 mps 715 mmHg 61%
    16:00 +14°C° 0 mm 1 mps 715 mmHg 68%
    17:00 +13°C° 0 mm 1 mps 715 mmHg 75%
    18:00 +12°C° 0 mm 1 mps 714 mmHg 82%
    19:00 +11°C° 0 mm 1 mps 715 mmHg 84%
    20:00 +11°C° 0 mm 1 mps 715 mmHg 85%
    21:00 +10°C° 0 mm 1 mps 715 mmHg 87%
    22:00 +10°C° 0 mm 1 mps 715 mmHg 87%
    23:00 +10°C° 0 mm 1 mps 715 mmHg 86%

    Day after tomorrow, 29 January, Wednesday

    Time Temperature Precipitation Wind Pressure Humidity
    00:00 +10°C° 0 mm 1 mps 715 mmHg 86%
    01:00 +9°C° 0 mm 1 mps 715 mmHg 85%
    02:00 +9°C° 0 mm 1 mps 714 mmHg 85%
    03:00 +9°C° 0 mm 1 mps 714 mmHg 84%
    04:00 +9°C° 0 mm 1 mps 714 mmHg 83%
    05:00 +9°C° 0 mm 1 mps 714 mmHg 83%
    06:00 +9°C° 0 mm 1 mps 714 mmHg 82%
    07:00 +10°C° 0 mm 1 mps 714 mmHg 79%
    08:00 +11°C° 0 mm 1 mps 715 mmHg 75%
    09:00 +12°C° 0 mm 1 mps 715 mmHg 72%
    10:00 +14°C° 0 mm 1 mps 715 mmHg 66%
    11:00 +15°C° 0 mm 1 mps 715 mmHg 59%
    12:00 +18°C° 0 mm 1 mps 716 mmHg 53%
    13:00 +18°C° 0 mm 1 mps 715 mmHg 51%
    14:00 +18°C° 0 mm 1 mps 715 mmHg 50%
    15:00 +19°C° 0 mm 1 mps 714 mmHg 49%
    16:00 +16°C° 0 mm 1 mps 714 mmHg 56%
    17:00 +15°C° 0 mm 1 mps 714 mmHg 63%
    18:00 +13°C° 0 mm 1 mps 714 mmHg 70%
    19:00 +13°C° 0 mm 1 mps 714 mmHg 71%
    20:00 +12°C° 0 mm 1 mps 715 mmHg 72%
    21:00 +10°C° 0 mm 0 mps 715 mmHg 73%
    22:00 +10°C° 0 mm 0 mps 715 mmHg 71%
    23:00 +10°C° 0 mm 0 mps 715 mmHg 68%

    30 January, Thursday

    Time Temperature Precipitation Wind Pressure Humidity
    00:00 +11°C° 0 mm 1 mps 715 mmHg 66%
    01:00 +11°C° 0 mm 1 mps 714 mmHg 63%
    02:00 +11°C° 0 mm 1 mps 714 mmHg 61%
    03:00 +10°C° 0 mm 1 mps 714 mmHg 59%
    04:00 +10°C° 0 mm 1 mps 714 mmHg 58%
    05:00 +10°C° 0 mm 1 mps 714 mmHg 57%
    06:00 +9°C° 0 mm 1 mps 714 mmHg 56%
    07:00 +10°C° 0 mm 1 mps 714 mmHg 55%
    08:00 +11°C° 0 mm 1 mps 715 mmHg 53%
    09:00 +12°C° 0 mm 1 mps 715 mmHg 51%
    10:00 +14°C° 0 mm 1 mps 715 mmHg 46%
    11:00 +15°C° 0 mm 1 mps 716 mmHg 41%
    12:00 +16°C° 0 mm 1 mps 716 mmHg 35%
    13:00 +16°C° 0 mm 1 mps 715 mmHg 36%
    14:00 +16°C° 0 mm 2 mps 715 mmHg 36%
    15:00 +17°C° 0 mm 2 mps 715 mmHg 36%
    16:00 +15°C° 0 mm 2 mps 715 mmHg 43%
    17:00 +13°C° 0 mm 1 mps 714 mmHg 49%
    18:00 +12°C° 0 mm 1 mps 714 mmHg 55%
    19:00 +11°C° 0 mm 1 mps 715 mmHg 56%
    20:00 +11°C° 0 mm 1 mps 715 mmHg 58%
    21:00 +10°C° 0 mm 1 mps 715 mmHg 60%
    22:00 +10°C° 0 mm 1 mps 715 mmHg 61%
    23:00 +10°C° 0 mm 1 mps 715 mmHg 62%

    31 January, Friday

    Time Temperature Precipitation Wind Pressure Humidity
    00:00 +10°C° 0 mm 1 mps 715 mmHg 63%
    01:00 +10°C° 0 mm 1 mps 715 mmHg 62%
    02:00 +9°C° 0 mm 1 mps 715 mmHg 60%
    03:00 +9°C° 0 mm 1 mps 715 mmHg 59%
    04:00 +9°C° 0 mm 1 mps 715 mmHg 58%
    05:00 +9°C° 0 mm 1 mps 714 mmHg 58%
    06:00 +9°C° 0 mm 1 mps 714 mmHg 57%
    07:00 +10°C° 0 mm 1 mps 715 mmHg 56%
    08:00 +11°C° 0 mm 1 mps 715 mmHg 55%
    09:00 +13°C° 0 mm 1 mps 716 mmHg 54%
    10:00 +14°C° 0 mm 1 mps 716 mmHg 52%
    11:00 +16°C° 0 mm 1 mps 716 mmHg 50%
    12:00 +18°C° 0 mm 1 mps 716 mmHg 48%
    13:00 +19°C° 0 mm 1 mps 716 mmHg 48%
    14:00 +18°C° 0 mm 2 mps 715 mmHg 48%
    15:00 +18°C° 0 mm 2 mps 715 mmHg 48%
    16:00 +17°C° 0 mm 2 mps 715 mmHg 53%
    17:00 +15°C° 0 mm 2 mps 715 mmHg 58%
    18:00 +13°C° 0 mm 1 mps 714 mmHg 63%
    19:00 +13°C° 0 mm 1 mps 715 mmHg 63%
    20:00 +13°C° 0 mm 1 mps 715 mmHg 62%
    21:00 +12°C° 0 mm 1 mps 715 mmHg 61%
    22:00 +12°C° 0 mm 1 mps 715 mmHg 61%
    23:00 +12°C° 0 mm 1 mps 715 mmHg 60%

    1 February, Saturday

    Time Temperature Precipitation Wind Pressure Humidity
    00:00 +11°C° 0 mm 1 mps 715 mmHg 60%
    01:00 +11°C° 0 mm 1 mps 715 mmHg 59%
    02:00 +11°C° 0 mm 1 mps 715 mmHg 58%
    03:00 +11°C° 0 mm 1 mps 714 mmHg 58%
    04:00 +10°C° 0 mm 1 mps 714 mmHg 57%
    05:00 +10°C° 0 mm 1 mps 714 mmHg 57%
    06:00 +10°C° 0 mm 1 mps 714 mmHg 57%
    07:00 +11°C° 0 mm 1 mps 715 mmHg 55%
    08:00 +12°C° 0 mm 1 mps 715 mmHg 54%
    09:00 +13°C° 0 mm 1 mps 716 mmHg 53%
    10:00 +15°C° 0 mm 1 mps 716 mmHg 48%
    11:00 +16°C° 0 mm 1 mps 716 mmHg 42%
    12:00 +19°C° 0 mm 1 mps 716 mmHg 37%
    13:00 +19°C° 0 mm 1 mps 716 mmHg 36%
    14:00 +20°C° 0 mm 1 mps 716 mmHg 35%
    15:00 +21°C° 0 mm 1 mps 716 mmHg 35%
    16:00 +19°C° 0 mm 1 mps 715 mmHg 42%
    17:00 +16°C° 0 mm 1 mps 715 mmHg 49%
    18:00 +14°C° 0 mm 1 mps 715 mmHg 56%
    19:00 +14°C° 0 mm 1 mps 715 mmHg 56%
    20:00 +13°C° 0 mm 1 mps 716 mmHg 56%
    21:00 +13°C° 0 mm 1 mps 716 mmHg 56%
    22:00 +13°C° 0 mm 1 mps 716 mmHg 56%
    23:00 +13°C° 0 mm 1 mps 716 mmHg 56%
    Show more